User: anonymous   Login
Location: Unspecified
(0.0000°N, 0.0000°E)
Time: 07:41:21
(UTC+00:00)
Language:

CAS-4A - Orbit

View from above orbital plane
View from above orbital plane
View from above satellite
View from above satellite

Ground track
Ground track

The orbit data is extracted from the following two-line orbital elements,

1 42761U 17034D   25138.90376885  .00068436  00000-0  76186-3 0  9998
2 42761  43.0111  88.1861 0019627 147.9171 212.2892 15.61719077439230
Epoch (UTC): 18 May 2025 21:41:25
Eccentricity: 0.0019627
inclination: 43.0111°
perigee height: 369 km
apogee height: 396 km
right ascension of ascending node: 88.1861°
argument of perigee: 147.9171°
revolutions per day: 15.61719077
mean anomaly at epoch: 212.2892°
orbit number at epoch: 43923

The dashed part of the orbit path shows where the satellite is in the earth's shadow,  

DLR